Location: Quebec
(46.8000°N, 71.2500°W)
Time: 17:46:58
(UTC-04:00)

Tiangong 1 - Pass Details

Date: 15 October 2017
Orbit: 293 x 320 km, 42.8° (Epoch: 20 October)

Event Time Altitude Azimuth Distance (km) Brightness Sun altitude
Rises 18:41:05 0° 266° (W) 2,049 7.4 -8.2°
Reaches altitude 10° 18:43:26 10° 246° (WSW) 1,211 4.9 -8.6°
Maximum altitude 18:45:24 18° 200° (SSW) 864 3.1 -9.0°
Drops below altitude 10° 18:47:20 10° 154° (SSE) 1,198 3.3 -9.3°
Enters shadow 18:48:30 - 141° (SE) 1,590 3.8 -9.5°
